Погода в Трехречном

Россия / Республика Адыгея     44°39′31″N   40°23′42″E
темп.,
°C
ветер,
м/с
пор.,
м/с
влажн.,
%
обл.,
%
осадки,
мм/ч
давл.,
гПа
погр.,
м
23 января, сб
сб2300:00−1ю12740 0.0 102822
03:00−1ююв12750 0.0 102722
06:000ююв237368 0.0 102622
09:00+1ююв227023 0.0 102623
12:00+4ююв11930 0.0 102625
15:00+4юв12804 0.0 102422
18:00+3юв236714 0.0 102522
21:00+2ююв23728 0.0 102422
24 января, вс
вс2400:00+2юв23650 0.0 102322
03:00+2юв34630 0.0 102228
06:00+1юв34610 0.0 102131
09:00+2юв34650 0.0 102255
12:00+5вюв337098 0.0 101969
15:00+6вюв336999 0.0 101842
18:00+3юв2369100 0.0 101924
21:00+3ю2270100 0.0 101922
25 января, пн
пн2500:00+3юз1165100 0.0 101922
03:00+3ююв2265100 0.0 101922
06:00+3юв336081 0.0 102022
09:00+4юв3361100 0.0 101927
12:00+8вюв236855 0.0 1018103
15:00+8в35710 0.0 101694
18:00+5вюв346690 0.0 101630
21:00+5юв3468100 0.0 101634
26 января, вт
вт2600:00+5зюз2265100 0.0 101622
03:00+4ю2362100 0.0 101623
06:00+4ююз3464100 0.0 101753
09:00+5ююв4564100 0.0 101670
12:00+10юв3569100 0.0 1014109
15:00+11юв3567100 0.0 1017135
18:00+7ссз2376100 0.0 101633
21:00+6юв347593 0.0 101742
27 января, ср
ср2700:00+5юв3479100 0.0 101784
03:00+4вюв347896 0.0 101780
06:00+6юв3470100 0.0 101135
09:00+5вюв41077100 0.0 1014236
12:00+8в3571100 0.0 1012348
15:00+11вюв1262100 0.0 100687
18:00+7ссв1272100 0.0 100623
21:00+5в2284100 0.0 100756